Year,Month,Day,Hour,Minute,Value (Times are PST for temperature in C)
2008,03,26,00,00,3.20
2008,03,26,00,01,3.20
2008,03,26,00,02,3.20
2008,03,26,00,03,3.20
2008,03,26,00,04,3.20
2008,03,26,00,05,3.20
2008,03,26,00,06,3.30
2008,03,26,00,07,3.30
2008,03,26,00,08,3.30
2008,03,26,00,09,3.30
2008,03,26,00,10,3.30
2008,03,26,00,11,3.30
2008,03,26,00,12,3.30
2008,03,26,00,13,3.30
2008,03,26,00,14,3.30
2008,03,26,00,15,3.30
2008,03,26,00,16,3.30
2008,03,26,00,17,3.30
2008,03,26,00,18,3.30
2008,03,26,00,19,3.30
2008,03,26,00,20,3.30
2008,03,26,00,21,3.30
2008,03,26,00,22,3.30
2008,03,26,00,23,3.30
2008,03,26,00,24,3.30
2008,03,26,00,25,3.30
2008,03,26,00,26,3.30
2008,03,26,00,27,3.30
2008,03,26,00,28,3.30
2008,03,26,00,29,3.30
2008,03,26,00,30,3.30
2008,03,26,00,31,3.30
2008,03,26,00,32,3.30
2008,03,26,00,33,3.30
2008,03,26,00,34,3.30
2008,03,26,00,35,3.30
2008,03,26,00,36,3.30
2008,03,26,00,37,3.30
2008,03,26,00,38,3.30
2008,03,26,00,39,3.30
2008,03,26,00,40,3.30
2008,03,26,00,41,3.30
2008,03,26,00,42,3.30
2008,03,26,00,43,3.40
2008,03,26,00,44,3.40
2008,03,26,00,45,3.50
2008,03,26,00,46,3.50
2008,03,26,00,47,3.50
2008,03,26,00,48,3.50
2008,03,26,00,49,3.60
2008,03,26,00,50,3.60
2008,03,26,00,51,3.60
2008,03,26,00,52,3.60
2008,03,26,00,53,3.60
2008,03,26,00,54,3.60
2008,03,26,00,55,3.70
2008,03,26,00,56,3.70
2008,03,26,00,57,3.70
2008,03,26,00,58,3.70
2008,03,26,00,59,3.70
2008,03,26,01,00,3.70
2008,03,26,01,01,3.70
2008,03,26,01,02,3.60
2008,03,26,01,03,3.60
2008,03,26,01,04,3.60
2008,03,26,01,05,3.60
2008,03,26,01,06,3.60
2008,03,26,01,07,3.60
2008,03,26,01,08,3.60
2008,03,26,01,09,3.60
2008,03,26,01,10,3.60
2008,03,26,01,11,3.50
2008,03,26,01,12,3.50
2008,03,26,01,13,3.50
2008,03,26,01,14,3.50
2008,03,26,01,15,3.50
2008,03,26,01,16,3.50
2008,03,26,01,17,3.50
2008,03,26,01,18,3.40
2008,03,26,01,19,3.40
2008,03,26,01,20,3.40
2008,03,26,01,21,3.40
2008,03,26,01,22,3.40
2008,03,26,01,23,3.40
2008,03,26,01,24,3.40
2008,03,26,01,25,3.30
2008,03,26,01,26,3.30
2008,03,26,01,27,3.30
2008,03,26,01,28,3.30
2008,03,26,01,29,3.30
2008,03,26,01,30,3.30
2008,03,26,01,31,3.30
2008,03,26,01,32,3.30
2008,03,26,01,33,3.30
2008,03,26,01,34,3.20
2008,03,26,01,35,3.20
2008,03,26,01,36,3.20
2008,03,26,01,37,3.20
2008,03,26,01,38,3.20
2008,03,26,01,39,3.20
2008,03,26,01,40,3.20
2008,03,26,01,41,3.20
2008,03,26,01,42,3.20
2008,03,26,01,43,3.20
2008,03,26,01,44,3.20
2008,03,26,01,45,3.10
2008,03,26,01,46,3.10
2008,03,26,01,47,3.10
2008,03,26,01,48,3.10
2008,03,26,01,49,3.10
2008,03,26,01,50,3.10
2008,03,26,01,51,3.10
2008,03,26,01,52,3.10
2008,03,26,01,53,3.10
2008,03,26,01,54,3.10
2008,03,26,01,55,3.10
2008,03,26,01,56,3.10
2008,03,26,01,57,2.90
2008,03,26,01,58,2.90
2008,03,26,01,59,2.90
2008,03,26,02,00,2.90
2008,03,26,02,01,2.90
2008,03,26,02,02,2.90
2008,03,26,02,03,2.90
2008,03,26,02,04,2.80
2008,03,26,02,05,2.80
2008,03,26,02,06,2.80
2008,03,26,02,07,2.80
2008,03,26,02,08,2.70
2008,03,26,02,09,2.70
2008,03,26,02,10,2.70
2008,03,26,02,11,2.70
2008,03,26,02,12,2.70
2008,03,26,02,13,2.70
2008,03,26,02,14,2.70
2008,03,26,02,15,2.70
2008,03,26,02,16,2.60
2008,03,26,02,17,2.60
2008,03,26,02,18,2.60
2008,03,26,02,19,2.60
2008,03,26,02,20,2.60
2008,03,26,02,21,2.50
2008,03,26,02,22,2.50
2008,03,26,02,23,2.50
2008,03,26,02,24,2.40
2008,03,26,02,25,2.40
2008,03,26,02,26,2.40
2008,03,26,02,27,2.40
2008,03,26,02,28,2.30
2008,03,26,02,29,2.30
2008,03,26,02,30,2.30
2008,03,26,02,31,2.30
2008,03,26,02,32,2.30
2008,03,26,02,33,2.30
2008,03,26,02,34,2.30
2008,03,26,02,35,2.30
2008,03,26,02,36,2.20
2008,03,26,02,37,2.20
2008,03,26,02,38,2.20
2008,03,26,02,39,2.20
2008,03,26,02,40,2.20
2008,03,26,02,41,2.20
2008,03,26,02,42,2.20
2008,03,26,02,43,2.20
2008,03,26,02,44,2.20
2008,03,26,02,45,2.20
2008,03,26,02,46,2.20
2008,03,26,02,47,2.10
2008,03,26,02,48,2.10
2008,03,26,02,49,2.10
2008,03,26,02,50,2.10
2008,03,26,02,51,2.10
2008,03,26,02,52,2.10
2008,03,26,02,53,2.10
2008,03,26,02,54,2.10
2008,03,26,02,55,2.10
2008,03,26,02,56,2.00
2008,03,26,02,57,2.00
2008,03,26,02,58,2.00
2008,03,26,02,59,1.90
2008,03,26,03,00,1.90
2008,03,26,03,01,1.90
2008,03,26,03,02,1.80
2008,03,26,03,03,1.80
2008,03,26,03,04,1.80
2008,03,26,03,05,1.80
2008,03,26,03,06,1.80
2008,03,26,03,07,1.70
2008,03,26,03,08,1.70
2008,03,26,03,09,1.70
2008,03,26,03,10,1.60
2008,03,26,03,11,1.60
2008,03,26,03,12,1.60
2008,03,26,03,13,1.50
2008,03,26,03,14,1.50
2008,03,26,03,15,1.50
2008,03,26,03,16,1.50
2008,03,26,03,17,1.40
2008,03,26,03,18,1.40
2008,03,26,03,19,1.40
2008,03,26,03,20,1.40
2008,03,26,03,21,1.30
2008,03,26,03,22,1.30
2008,03,26,03,23,1.30
2008,03,26,03,24,1.30
2008,03,26,03,25,1.30
2008,03,26,03,26,1.30
2008,03,26,03,27,1.30
2008,03,26,03,28,1.30
2008,03,26,03,29,1.20
2008,03,26,03,30,1.20
2008,03,26,03,31,1.20
2008,03,26,03,32,1.10
2008,03,26,03,33,1.10
2008,03,26,03,34,1.10
2008,03,26,03,35,1.10
2008,03,26,03,36,1.10
2008,03,26,03,37,1.10
2008,03,26,03,38,1.10
2008,03,26,03,39,1.00
2008,03,26,03,40,1.00
2008,03,26,03,41,1.00
2008,03,26,03,42,0.90
2008,03,26,03,43,0.90
2008,03,26,03,44,0.90
2008,03,26,03,45,0.80
2008,03,26,03,46,0.80
2008,03,26,03,47,0.80
2008,03,26,03,48,0.80
2008,03,26,03,49,0.70
2008,03,26,03,50,0.70
2008,03,26,03,51,0.70
2008,03,26,03,52,0.70
2008,03,26,03,53,0.70
2008,03,26,03,54,0.70
2008,03,26,03,55,0.70
2008,03,26,03,56,0.60
2008,03,26,03,57,0.60
2008,03,26,03,58,0.60
2008,03,26,03,59,0.60
2008,03,26,04,00,0.60
2008,03,26,04,01,0.50
2008,03,26,04,02,0.50
2008,03,26,04,03,0.50
2008,03,26,04,04,0.50
2008,03,26,04,05,0.50
2008,03,26,04,06,0.50
2008,03,26,04,07,0.40
2008,03,26,04,08,0.40
2008,03,26,04,09,0.40
2008,03,26,04,10,0.40
2008,03,26,04,11,0.40
2008,03,26,04,12,0.40
2008,03,26,04,13,0.40
2008,03,26,04,14,0.40
2008,03,26,04,15,0.40
2008,03,26,04,16,0.40
2008,03,26,04,17,0.40
2008,03,26,04,18,0.40
2008,03,26,04,19,0.40
2008,03,26,04,20,0.40
2008,03,26,04,21,0.50
2008,03,26,04,22,0.50
2008,03,26,04,23,0.50
2008,03,26,04,24,0.50
2008,03,26,04,25,0.50
2008,03,26,04,26,0.60
2008,03,26,04,27,0.60
2008,03,26,04,28,0.60
2008,03,26,04,29,0.60
2008,03,26,04,30,0.60
2008,03,26,04,31,0.70
2008,03,26,04,32,0.70
2008,03,26,04,33,0.70
2008,03,26,04,34,0.70
2008,03,26,04,35,0.70
2008,03,26,04,36,0.70
2008,03,26,04,37,0.80
2008,03,26,04,38,0.80
2008,03,26,04,39,0.80
2008,03,26,04,40,0.80
2008,03,26,04,41,0.90
2008,03,26,04,42,1.00
2008,03,26,04,43,1.10
2008,03,26,04,44,1.10
2008,03,26,04,45,1.20
2008,03,26,04,46,1.20
2008,03,26,04,47,1.30
2008,03,26,04,48,1.30
2008,03,26,04,49,1.30
2008,03,26,04,50,1.30
2008,03,26,04,51,1.40
2008,03,26,04,52,1.40
2008,03,26,04,53,1.40
2008,03,26,04,54,1.40
2008,03,26,04,55,1.40
2008,03,26,04,56,1.40
2008,03,26,04,57,1.40
2008,03,26,04,58,1.40
2008,03,26,04,59,1.40
2008,03,26,05,00,1.40
2008,03,26,05,01,1.40
2008,03,26,05,02,1.40
2008,03,26,05,03,1.40
2008,03,26,05,04,1.40
2008,03,26,05,05,1.40
2008,03,26,05,06,1.40
2008,03,26,05,07,1.50
2008,03,26,05,08,1.50
2008,03,26,05,09,1.50
2008,03,26,05,10,1.50
2008,03,26,05,11,1.50
2008,03,26,05,12,1.50
2008,03,26,05,13,1.50
2008,03,26,05,14,1.50
2008,03,26,05,15,1.50
2008,03,26,05,16,1.50
2008,03,26,05,17,1.50
2008,03,26,05,18,1.50
2008,03,26,05,19,1.50
2008,03,26,05,20,1.60
2008,03,26,05,21,1.60
2008,03,26,05,22,1.60
2008,03,26,05,23,1.60
2008,03,26,05,24,1.60
2008,03,26,05,25,1.60
2008,03,26,05,26,1.60
2008,03,26,05,27,1.60
2008,03,26,05,28,1.60
2008,03,26,05,29,1.50
2008,03,26,05,30,1.50
2008,03,26,05,31,1.50
2008,03,26,05,32,1.60
2008,03,26,05,33,1.60
2008,03,26,05,34,1.60
2008,03,26,05,35,1.60
2008,03,26,05,36,1.60
2008,03,26,05,37,1.60
2008,03,26,05,38,1.50
2008,03,26,05,39,1.50
2008,03,26,05,40,1.50
2008,03,26,05,41,1.50
2008,03,26,05,42,1.40
2008,03,26,05,43,1.40
2008,03,26,05,44,1.40
2008,03,26,05,45,1.30
2008,03,26,05,46,1.30
2008,03,26,05,47,1.30
2008,03,26,05,48,1.30
2008,03,26,05,49,1.30
2008,03,26,05,50,1.30
2008,03,26,05,51,1.30
2008,03,26,05,52,1.30
2008,03,26,05,53,1.30
2008,03,26,05,54,1.30
2008,03,26,05,55,1.30
2008,03,26,05,56,1.20
2008,03,26,05,57,1.20
2008,03,26,05,58,1.20
2008,03,26,05,59,1.20
2008,03,26,06,00,1.20
2008,03,26,06,01,1.20
2008,03,26,06,02,1.10
2008,03,26,06,03,1.10
2008,03,26,06,04,1.10
2008,03,26,06,05,1.10
2008,03,26,06,06,1.10
2008,03,26,06,07,1.10
2008,03,26,06,08,1.10
2008,03,26,06,09,1.00
2008,03,26,06,10,1.00
2008,03,26,06,11,1.00
2008,03,26,06,12,1.00
2008,03,26,06,13,1.00
2008,03,26,06,14,1.00
2008,03,26,06,15,1.00
2008,03,26,06,16,1.00
2008,03,26,06,17,1.00
2008,03,26,06,18,0.90
2008,03,26,06,19,0.90
2008,03,26,06,20,0.90
2008,03,26,06,21,0.90
2008,03,26,06,22,0.90
2008,03,26,06,23,0.90
2008,03,26,06,24,0.90
2008,03,26,06,25,0.90
2008,03,26,06,26,0.90
2008,03,26,06,27,0.90
2008,03,26,06,28,1.00
2008,03,26,06,29,1.00
2008,03,26,06,30,1.00
2008,03,26,06,31,1.00
2008,03,26,06,32,0.90
2008,03,26,06,33,0.90
2008,03,26,06,34,0.90
2008,03,26,06,35,0.90
2008,03,26,06,36,0.90
2008,03,26,06,37,0.90
2008,03,26,06,38,0.90
2008,03,26,06,39,0.90
2008,03,26,06,40,0.90
2008,03,26,06,41,0.90
2008,03,26,06,42,0.90
2008,03,26,06,43,0.90
2008,03,26,06,44,0.90
2008,03,26,06,45,0.90
2008,03,26,06,46,0.90
2008,03,26,06,47,0.90
2008,03,26,06,48,0.90
2008,03,26,06,49,0.90
2008,03,26,06,50,0.90
2008,03,26,06,51,0.80
2008,03,26,06,52,0.80
2008,03,26,06,53,0.80
2008,03,26,06,54,0.90
2008,03,26,06,55,0.90
2008,03,26,06,56,0.90
2008,03,26,06,57,0.90
2008,03,26,06,58,0.90
2008,03,26,06,59,0.90
2008,03,26,07,00,0.80
2008,03,26,07,01,0.80
2008,03,26,07,02,0.80
2008,03,26,07,03,0.80
2008,03,26,07,04,0.80
2008,03,26,07,05,0.80
2008,03,26,07,06,0.80
2008,03,26,07,07,0.80
2008,03,26,07,08,0.90
2008,03,26,07,09,1.00
2008,03,26,07,10,1.00
2008,03,26,07,11,1.10
2008,03,26,07,12,1.10
2008,03,26,07,13,1.10
2008,03,26,07,14,1.20
2008,03,26,07,15,1.20
2008,03,26,07,16,1.20
2008,03,26,07,17,1.20
2008,03,26,07,18,1.20
2008,03,26,07,19,1.20
2008,03,26,07,20,1.20
2008,03,26,07,21,1.10
2008,03,26,07,22,1.10
2008,03,26,07,23,1.10
2008,03,26,07,24,1.10
2008,03,26,07,25,1.10
2008,03,26,07,26,1.10
2008,03,26,07,27,1.10
2008,03,26,07,28,1.10
2008,03,26,07,29,1.10
2008,03,26,07,30,1.00
2008,03,26,07,31,1.00
2008,03,26,07,32,1.00
2008,03,26,07,33,1.00
2008,03,26,07,34,0.90
2008,03,26,07,35,0.90
2008,03,26,07,36,0.90
2008,03,26,07,37,0.80
2008,03,26,07,38,0.80
2008,03,26,07,39,0.80
2008,03,26,07,40,0.80
2008,03,26,07,41,0.70
2008,03,26,07,42,0.70
2008,03,26,07,43,0.70
2008,03,26,07,44,0.70
2008,03,26,07,45,0.60
2008,03,26,07,46,0.60
2008,03,26,07,47,0.60
2008,03,26,07,48,0.60
2008,03,26,07,49,0.60
2008,03,26,07,50,0.60
2008,03,26,07,51,0.60
2008,03,26,07,52,0.60
2008,03,26,07,53,0.60
2008,03,26,07,54,0.60
2008,03,26,07,55,0.60
2008,03,26,07,56,0.60
2008,03,26,07,57,0.60
2008,03,26,07,58,0.50
2008,03,26,07,59,0.50
2008,03,26,08,00,0.50
2008,03,26,08,01,0.50
2008,03,26,08,02,0.50
2008,03,26,08,03,0.50
2008,03,26,08,04,0.50
2008,03,26,08,05,0.40
2008,03,26,08,06,0.40
2008,03,26,08,07,0.40
2008,03,26,08,08,0.40
2008,03,26,08,09,0.40
2008,03,26,08,10,0.40
2008,03,26,08,11,0.40
2008,03,26,08,12,0.40
2008,03,26,08,13,0.40
2008,03,26,08,14,0.40
2008,03,26,08,15,0.40
2008,03,26,08,16,0.40
2008,03,26,08,17,0.40
2008,03,26,08,18,0.40
2008,03,26,08,19,0.40
2008,03,26,08,20,0.40
2008,03,26,08,21,0.30
2008,03,26,08,22,0.30
2008,03,26,08,23,0.40
2008,03,26,08,24,0.40
2008,03,26,08,25,0.40
2008,03,26,08,26,0.40
2008,03,26,08,27,0.40
2008,03,26,08,28,0.40
2008,03,26,08,29,0.40
2008,03,26,08,30,0.40
2008,03,26,08,31,0.40
2008,03,26,08,32,0.40
2008,03,26,08,33,0.40
2008,03,26,08,34,0.40
2008,03,26,08,35,0.50
2008,03,26,08,36,0.50
2008,03,26,08,37,0.50
2008,03,26,08,38,0.50
2008,03,26,08,39,0.50
2008,03,26,08,40,0.50
2008,03,26,08,41,0.50
2008,03,26,08,42,0.50
2008,03,26,08,43,0.50
2008,03,26,08,44,0.60
2008,03,26,08,45,0.60
2008,03,26,08,46,0.60
2008,03,26,08,47,0.60
2008,03,26,08,48,0.70
2008,03,26,08,49,0.70
2008,03,26,08,50,0.70
2008,03,26,08,51,0.80
2008,03,26,08,52,0.80
2008,03,26,08,53,0.80
2008,03,26,08,54,0.80
2008,03,26,08,55,0.90
2008,03,26,08,56,0.90
2008,03,26,08,57,0.90
2008,03,26,08,58,1.00
2008,03,26,08,59,1.00
2008,03,26,09,00,1.00
2008,03,26,09,01,1.00
2008,03,26,09,02,1.10
2008,03,26,09,03,1.10
2008,03,26,09,04,1.10
2008,03,26,09,05,1.10
2008,03,26,09,06,1.10
2008,03,26,09,07,1.10
2008,03,26,09,08,1.20
2008,03,26,09,09,1.30
2008,03,26,09,10,1.50
2008,03,26,09,11,1.60
2008,03,26,09,12,1.70
2008,03,26,09,13,1.80
2008,03,26,09,14,2.00
2008,03,26,09,15,2.10
2008,03,26,09,16,2.20
2008,03,26,09,17,2.30
2008,03,26,09,18,2.40
2008,03,26,09,19,2.40
2008,03,26,09,20,2.50
2008,03,26,09,21,2.50
2008,03,26,09,22,2.40
2008,03,26,09,23,2.40
2008,03,26,09,24,2.40
2008,03,26,09,25,2.40
2008,03,26,09,26,2.30
2008,03,26,09,27,2.30
2008,03,26,09,28,2.30
2008,03,26,09,29,2.20
2008,03,26,09,30,2.20
2008,03,26,09,31,2.30
2008,03,26,09,32,2.30
2008,03,26,09,33,2.40
2008,03,26,09,34,2.50
2008,03,26,09,35,2.70
2008,03,26,09,36,2.80
2008,03,26,09,37,2.80
2008,03,26,09,38,2.90
2008,03,26,09,39,2.90
2008,03,26,09,40,3.00
2008,03,26,09,41,3.10
2008,03,26,09,42,3.20
2008,03,26,09,43,3.20
2008,03,26,09,44,3.20
2008,03,26,09,45,3.30
2008,03,26,09,46,3.30
2008,03,26,09,47,3.30
2008,03,26,09,48,3.40
2008,03,26,09,49,3.40
2008,03,26,09,50,3.50
2008,03,26,09,51,3.50
2008,03,26,09,52,3.60
2008,03,26,09,53,3.60
2008,03,26,09,54,3.60
2008,03,26,09,55,3.60
2008,03,26,09,56,3.60
2008,03,26,09,57,3.50
2008,03,26,09,58,3.50
2008,03,26,09,59,3.60
2008,03,26,10,00,3.60
2008,03,26,10,01,3.60
2008,03,26,10,02,3.70
2008,03,26,10,03,3.70
2008,03,26,10,04,3.70
2008,03,26,10,05,3.80
2008,03,26,10,06,3.80
2008,03,26,10,07,3.80
2008,03,26,10,08,3.90
2008,03,26,10,09,3.90
2008,03,26,10,10,3.90
2008,03,26,10,11,4.00
2008,03,26,10,12,4.00
2008,03,26,10,13,4.00
2008,03,26,10,14,4.10
2008,03,26,10,15,4.10
2008,03,26,10,16,4.20
2008,03,26,10,17,4.20
2008,03,26,10,18,4.30
2008,03,26,10,19,4.30
2008,03,26,10,20,4.30
2008,03,26,10,21,4.40
2008,03,26,10,22,4.40
2008,03,26,10,23,4.40
2008,03,26,10,24,4.50
2008,03,26,10,25,4.50
2008,03,26,10,26,4.50
2008,03,26,10,27,4.50
2008,03,26,10,28,4.60
2008,03,26,10,29,4.60
2008,03,26,10,30,4.60
2008,03,26,10,31,4.60
2008,03,26,10,32,4.60
2008,03,26,10,33,4.60
2008,03,26,10,34,4.60
2008,03,26,10,35,4.60
2008,03,26,10,36,4.60
2008,03,26,10,37,4.70
2008,03,26,10,38,4.70
2008,03,26,10,39,4.70
2008,03,26,10,40,4.80
2008,03,26,10,41,4.80
2008,03,26,10,42,4.90
2008,03,26,10,43,4.90
2008,03,26,10,44,4.90
2008,03,26,10,45,5.00
2008,03,26,10,46,5.10
2008,03,26,10,47,5.10
2008,03,26,10,48,5.10
2008,03,26,10,49,5.20
2008,03,26,10,50,5.20
2008,03,26,10,51,5.30
2008,03,26,10,52,5.30
2008,03,26,10,53,5.30
2008,03,26,10,54,5.40
2008,03,26,10,55,5.40
2008,03,26,10,56,5.50
2008,03,26,10,57,5.50
2008,03,26,10,58,5.60
2008,03,26,10,59,5.60
2008,03,26,11,00,5.60
2008,03,26,11,01,5.70
2008,03,26,11,02,5.70
2008,03,26,11,03,5.80
2008,03,26,11,04,5.80
2008,03,26,11,05,5.90
2008,03,26,11,06,6.00
2008,03,26,11,07,6.10
2008,03,26,11,08,6.20
2008,03,26,11,09,6.20
2008,03,26,11,10,6.30
2008,03,26,11,11,6.40
2008,03,26,11,12,6.40
2008,03,26,11,13,6.50
2008,03,26,11,14,6.60
2008,03,26,11,15,6.60
2008,03,26,11,16,6.60
2008,03,26,11,17,6.70
2008,03,26,11,18,6.70
2008,03,26,11,19,6.60
2008,03,26,11,20,6.70
2008,03,26,11,21,6.70
2008,03,26,11,22,6.70
2008,03,26,11,23,6.80
2008,03,26,11,24,6.80
2008,03,26,11,25,6.80
2008,03,26,11,26,6.80
2008,03,26,11,27,6.80
2008,03,26,11,28,6.90
2008,03,26,11,29,6.90
2008,03,26,11,30,6.80
2008,03,26,11,31,6.80
2008,03,26,11,32,6.80
2008,03,26,11,33,6.80
2008,03,26,11,34,6.80
2008,03,26,11,35,6.70
2008,03,26,11,36,6.70
2008,03,26,11,37,6.70
2008,03,26,11,38,6.70
2008,03,26,11,39,6.60
2008,03,26,11,40,6.60
2008,03,26,11,41,6.60
2008,03,26,11,42,6.60
2008,03,26,11,43,6.60
2008,03,26,11,44,6.60
2008,03,26,11,45,6.60
2008,03,26,11,46,6.60
2008,03,26,11,47,6.60
2008,03,26,11,48,6.60
2008,03,26,11,49,6.60
2008,03,26,11,50,6.60
2008,03,26,11,51,6.60
2008,03,26,11,52,6.60
2008,03,26,11,53,6.60
2008,03,26,11,54,6.60
2008,03,26,11,55,6.60
2008,03,26,11,56,6.70
2008,03,26,11,57,6.80
2008,03,26,11,58,6.80
2008,03,26,11,59,6.80
2008,03,26,12,00,6.80
2008,03,26,12,01,6.90
2008,03,26,12,02,6.90
2008,03,26,12,03,7.00
2008,03,26,12,04,7.00
2008,03,26,12,05,7.10
2008,03,26,12,06,7.20
2008,03,26,12,07,7.10
2008,03,26,12,08,7.10
2008,03,26,12,09,7.10
2008,03,26,12,10,7.10
2008,03,26,12,11,7.00
2008,03,26,12,12,7.00
2008,03,26,12,13,6.90
2008,03,26,12,14,6.90
2008,03,26,12,15,6.90
2008,03,26,12,16,6.90
2008,03,26,12,17,6.80
2008,03,26,12,18,6.80
2008,03,26,12,19,6.80
2008,03,26,12,20,6.80
2008,03,26,12,21,6.80
2008,03,26,12,22,6.80
2008,03,26,12,23,6.80
2008,03,26,12,24,6.80
2008,03,26,12,25,6.80
2008,03,26,12,26,6.90
2008,03,26,12,27,6.90
2008,03,26,12,28,6.90
2008,03,26,12,29,6.90
2008,03,26,12,30,6.90
2008,03,26,12,31,7.00
2008,03,26,12,32,6.90
2008,03,26,12,33,6.90
2008,03,26,12,34,7.00
2008,03,26,12,35,7.00
2008,03,26,12,36,7.00
2008,03,26,12,37,7.10
2008,03,26,12,38,7.10
2008,03,26,12,39,7.10
2008,03,26,12,40,7.10
2008,03,26,12,41,7.20
2008,03,26,12,42,7.20
2008,03,26,12,43,7.20
2008,03,26,12,44,7.30
2008,03,26,12,45,7.40
2008,03,26,12,46,7.50
2008,03,26,12,47,7.70
2008,03,26,12,48,7.80
2008,03,26,12,49,7.90
2008,03,26,12,50,8.00
2008,03,26,12,51,8.20
2008,03,26,12,52,8.30
2008,03,26,12,53,8.40
2008,03,26,12,54,8.50
2008,03,26,12,55,8.50
2008,03,26,12,56,8.60
2008,03,26,12,57,8.70
2008,03,26,12,58,8.60
2008,03,26,12,59,8.60
2008,03,26,13,00,8.50
2008,03,26,13,01,8.50
2008,03,26,13,02,8.50
2008,03,26,13,03,8.40
2008,03,26,13,04,8.30
2008,03,26,13,05,8.10
2008,03,26,13,06,7.90
2008,03,26,13,07,7.80
2008,03,26,13,08,7.70
2008,03,26,13,09,7.70
2008,03,26,13,10,7.70
2008,03,26,13,11,7.60
2008,03,26,13,12,7.60
2008,03,26,13,13,7.60
2008,03,26,13,14,7.50
2008,03,26,13,15,7.50
2008,03,26,13,16,7.40
2008,03,26,13,17,7.40
2008,03,26,13,18,7.40
2008,03,26,13,19,7.40
2008,03,26,13,20,7.50
2008,03,26,13,21,7.50
2008,03,26,13,22,7.50
2008,03,26,13,23,7.60
2008,03,26,13,24,7.60
2008,03,26,13,25,7.60
2008,03,26,13,26,7.60
2008,03,26,13,27,7.70
2008,03,26,13,28,7.70
2008,03,26,13,29,7.70
2008,03,26,13,30,7.70
2008,03,26,13,31,7.80
2008,03,26,13,32,7.80
2008,03,26,13,33,7.80
2008,03,26,13,34,7.80
2008,03,26,13,35,7.80
2008,03,26,13,36,7.80
2008,03,26,13,37,7.80
2008,03,26,13,38,7.70
2008,03,26,13,39,7.70
2008,03,26,13,40,7.60
2008,03,26,13,41,7.50
2008,03,26,13,42,7.50
2008,03,26,13,43,7.40
2008,03,26,13,44,7.40
2008,03,26,13,45,7.40
2008,03,26,13,46,7.30
2008,03,26,13,47,7.30
2008,03,26,13,48,7.30
2008,03,26,13,49,7.20
2008,03,26,13,50,7.20
2008,03,26,13,51,7.20
2008,03,26,13,52,7.20
2008,03,26,13,53,7.20
2008,03,26,13,54,7.20
2008,03,26,13,55,7.10
2008,03,26,13,56,7.10
2008,03,26,13,57,7.10
2008,03,26,13,58,7.10
2008,03,26,13,59,7.20
2008,03,26,14,00,7.20
2008,03,26,14,01,7.20
2008,03,26,14,02,7.20
2008,03,26,14,03,7.30
2008,03,26,14,04,7.30
2008,03,26,14,05,7.30
2008,03,26,14,06,7.30
2008,03,26,14,07,7.30
2008,03,26,14,08,7.30
2008,03,26,14,09,7.30
2008,03,26,14,10,7.30
2008,03,26,14,11,7.30
2008,03,26,14,12,7.30
2008,03,26,14,13,7.30
2008,03,26,14,14,7.30
2008,03,26,14,15,7.40
2008,03,26,14,16,7.40
2008,03,26,14,17,7.40
2008,03,26,14,18,7.40
2008,03,26,14,19,7.40
2008,03,26,14,20,7.40
2008,03,26,14,21,7.40
2008,03,26,14,22,7.40
2008,03,26,14,23,7.40
2008,03,26,14,24,7.50
2008,03,26,14,25,7.50
2008,03,26,14,26,7.60
2008,03,26,14,27,7.60
2008,03,26,14,28,7.70
2008,03,26,14,29,7.70
2008,03,26,14,30,7.80
2008,03,26,14,31,7.80
2008,03,26,14,32,7.90
2008,03,26,14,33,8.00
2008,03,26,14,34,8.00
2008,03,26,14,35,8.10
2008,03,26,14,36,8.10
2008,03,26,14,37,8.20
2008,03,26,14,38,8.30
2008,03,26,14,39,8.30
2008,03,26,14,40,8.30
2008,03,26,14,41,8.20
2008,03,26,14,42,8.10
2008,03,26,14,43,8.10
2008,03,26,14,44,8.00
2008,03,26,14,45,8.00
2008,03,26,14,46,7.90
2008,03,26,14,47,7.80
2008,03,26,14,48,7.80
2008,03,26,14,49,7.80
2008,03,26,14,50,7.80
2008,03,26,14,51,7.80
2008,03,26,14,52,7.80
2008,03,26,14,53,7.80
2008,03,26,14,54,7.80
2008,03,26,14,55,7.80
2008,03,26,14,56,7.80
2008,03,26,14,57,7.80
2008,03,26,14,58,7.80
2008,03,26,14,59,7.70
2008,03,26,15,00,7.60
2008,03,26,15,01,7.50
2008,03,26,15,02,7.40
2008,03,26,15,03,7.30
2008,03,26,15,04,7.20
2008,03,26,15,05,7.10
2008,03,26,15,06,7.00
2008,03,26,15,07,6.90
2008,03,26,15,08,6.60
2008,03,26,15,09,6.30
2008,03,26,15,10,6.00
2008,03,26,15,11,5.70
2008,03,26,15,12,5.60
2008,03,26,15,13,5.30
2008,03,26,15,14,5.10
2008,03,26,15,15,4.90
2008,03,26,15,16,4.70
2008,03,26,15,17,4.50
2008,03,26,15,18,4.40
2008,03,26,15,19,4.30
2008,03,26,15,20,4.20
2008,03,26,15,21,4.20
2008,03,26,15,22,4.10
2008,03,26,15,23,4.10
2008,03,26,15,24,4.10
2008,03,26,15,25,4.10
2008,03,26,15,26,4.10
2008,03,26,15,27,4.10
2008,03,26,15,28,4.10
2008,03,26,15,29,4.10
2008,03,26,15,30,4.10
2008,03,26,15,31,4.20
2008,03,26,15,32,4.20
2008,03,26,15,33,4.20
2008,03,26,15,34,4.20
2008,03,26,15,35,4.20
2008,03,26,15,36,4.20
2008,03,26,15,37,4.30
2008,03,26,15,38,4.30
2008,03,26,15,39,4.40
2008,03,26,15,40,4.50
2008,03,26,15,41,4.50
2008,03,26,15,42,4.60
2008,03,26,15,43,4.70
2008,03,26,15,44,4.80
2008,03,26,15,45,4.80
2008,03,26,15,46,4.90
2008,03,26,15,47,4.90
2008,03,26,15,48,4.90
2008,03,26,15,49,4.90
2008,03,26,15,50,5.00
2008,03,26,15,51,5.10
2008,03,26,15,52,5.10
2008,03,26,15,53,5.10
2008,03,26,15,54,5.20
2008,03,26,15,55,5.30
2008,03,26,15,56,5.30
2008,03,26,15,57,5.30
2008,03,26,15,58,5.40
2008,03,26,15,59,5.50
2008,03,26,16,00,5.60
2008,03,26,16,01,5.60
2008,03,26,16,02,5.60
2008,03,26,16,03,5.70
2008,03,26,16,04,5.70
2008,03,26,16,05,5.70
2008,03,26,16,06,5.70
2008,03,26,16,07,5.60
2008,03,26,16,08,5.60
2008,03,26,16,09,5.60
2008,03,26,16,10,5.60
2008,03,26,16,11,5.60
2008,03,26,16,12,5.60
2008,03,26,16,13,5.70
2008,03,26,16,14,5.70
2008,03,26,16,15,5.70
2008,03,26,16,16,5.70
2008,03,26,16,17,5.60
2008,03,26,16,18,5.60
2008,03,26,16,19,5.60
2008,03,26,16,20,5.50
2008,03,26,16,21,5.50
2008,03,26,16,22,5.50
2008,03,26,16,23,5.50
2008,03,26,16,24,5.50
2008,03,26,16,25,5.60
2008,03,26,16,26,5.60
2008,03,26,16,27,5.60
2008,03,26,16,28,5.60
2008,03,26,16,29,5.60
2008,03,26,16,30,5.60
2008,03,26,16,31,5.60
2008,03,26,16,32,5.60
2008,03,26,16,33,5.60
2008,03,26,16,34,5.70
2008,03,26,16,35,5.70
2008,03,26,16,36,5.70
2008,03,26,16,37,5.70
2008,03,26,16,38,5.70
2008,03,26,16,39,5.70
2008,03,26,16,40,5.80
2008,03,26,16,41,5.90
2008,03,26,16,42,5.90
2008,03,26,16,43,6.00
2008,03,26,16,44,6.00
2008,03,26,16,45,6.00
2008,03,26,16,46,5.90
2008,03,26,16,47,5.90
2008,03,26,16,48,6.00
2008,03,26,16,49,6.00
2008,03,26,16,50,6.00
2008,03,26,16,51,6.00
2008,03,26,16,52,6.00
2008,03,26,16,53,6.10
2008,03,26,16,54,6.00
2008,03,26,16,55,5.90
2008,03,26,16,56,5.90
2008,03,26,16,57,5.90
2008,03,26,16,58,5.90
2008,03,26,16,59,5.90
2008,03,26,17,00,5.90
2008,03,26,17,01,5.90
2008,03,26,17,02,5.90
2008,03,26,17,03,5.80
2008,03,26,17,04,5.80
2008,03,26,17,05,5.80
2008,03,26,17,06,5.80
2008,03,26,17,07,5.80
2008,03,26,17,08,5.80
2008,03,26,17,09,5.80
2008,03,26,17,10,5.90
2008,03,26,17,11,5.90
2008,03,26,17,12,5.90
2008,03,26,17,13,5.90
2008,03,26,17,14,6.00
2008,03,26,17,15,6.00
2008,03,26,17,16,6.00
2008,03,26,17,17,6.00
2008,03,26,17,18,6.00
2008,03,26,17,19,6.00
2008,03,26,17,20,6.00
2008,03,26,17,21,5.90
2008,03,26,17,22,5.90
2008,03,26,17,23,5.90
2008,03,26,17,24,5.80
2008,03,26,17,25,5.80
2008,03,26,17,26,5.80
2008,03,26,17,27,5.80
2008,03,26,17,28,5.80
2008,03,26,17,29,5.80
2008,03,26,17,30,5.80
2008,03,26,17,31,5.70
2008,03,26,17,32,5.70
2008,03,26,17,33,5.70
2008,03,26,17,34,5.70
2008,03,26,17,35,5.70
2008,03,26,17,36,5.70
2008,03,26,17,37,5.80
2008,03,26,17,38,5.80
2008,03,26,17,39,5.80
2008,03,26,17,40,5.90
2008,03,26,17,41,5.90
2008,03,26,17,42,5.90
2008,03,26,17,43,5.90
2008,03,26,17,44,6.00
2008,03,26,17,45,6.00
2008,03,26,17,46,6.10
2008,03,26,17,47,6.20
2008,03,26,17,48,6.20
2008,03,26,17,49,6.30
2008,03,26,17,50,6.40
2008,03,26,17,51,6.40
2008,03,26,17,52,6.50
2008,03,26,17,53,6.60
2008,03,26,17,54,6.60
2008,03,26,17,55,6.70
2008,03,26,17,56,6.70
2008,03,26,17,57,6.80
2008,03,26,17,58,6.90
2008,03,26,17,59,7.00
2008,03,26,18,00,7.10
2008,03,26,18,01,7.10
2008,03,26,18,02,7.10
2008,03,26,18,03,7.00
2008,03,26,18,04,7.00
2008,03,26,18,05,6.90
2008,03,26,18,06,6.80